Location: Hurstbourne Priors
(51.2000°N, 1.3667°W)
Time: 23:04:06
(UTC+00:00)

Altair - Pass Details

Date: 12 April 2021
Orbit: 1501 x 1683 km, 47.2° (Epoch: 13 May)

Event Time Altitude Azimuth Distance (km) Brightness Sun altitude
Rises 12:25:56 0° 279° (W) 4,734 10.1 47.5°
Reaches altitude 10° 12:29:05 10° 276° (W) 3,727 9.7 47.4°
Maximum altitude 12:38:11 59° 200° (SSW) 1,719 10.0 47.2°
Drops below altitude 10° 12:47:04 10° 124° (SE) 3,647 9.8 46.9°
Sets 12:50:07 0° 121° (ESE) 4,627 10.2 46.7°
